User: anonymous   Login
Location: Unspecified
(0.0000°N, 0.0000°E)
Time: 05:45:50
(UTC+00:00)
Language:

OBJECT BQ - Orbit

View from above orbital plane
View from above orbital plane
View from above satellite
View from above satellite

Ground track
Ground track

The orbit is defined by the following mean orbital elements,

1 64590U          26145.28615513 +.00000000 +00000-0 +13618-3 0 00008
2 64590  97.7695 259.9831 0006528  58.0312 302.1542 14.93978458    01
Epoch (UTC): 25 May 2026 06:52:03
Eccentricity: 0.0006528
inclination: 97.7695°
perigee height: 581 km
apogee height: 590 km
right ascension of ascending node: 259.9831°
argument of perigee: 58.0312°
revolutions per day: 14.93978458
mean anomaly at epoch: 302.1542°

The dashed part of the orbit path shows where the satellite is in the earth's shadow,  

DLR